GW4712 Weather Reports


time (UTC)temp
F
wind
direction
speed
knots
gust
knots
rain 1hr
in
rain 24hr
in
rain mn
in
humidity
%
barometer
mb
20260903202242 93 306 0.0 0.0 0.00 0.00 0.00 63 1015.9
20260903201741 92 256 0.0 0.0 0.00 0.00 0.00 61 1016.0
20260903201236 93 254 0.0 0.9 0.00 0.00 0.00 61 1016.3
20260903200735 93 257 0.0 0.0 0.00 0.00 0.00 60 1016.3
20260903200231 93 190 0.0 0.0 0.00 0.00 0.00 59 1016.3
20260903195726 94 247 0.0 0.0 0.00 0.00 0.00 61 1016.3
20260903195222 93 234 0.0 0.0 0.00 0.00 0.00 61 1016.7
20260903194722 93 307 0.0 0.0 0.00 0.00 0.00 59 1016.4
20260903194218 93 261 0.0 0.9 0.00 0.00 0.00 60 1016.7
20260903193713 93 261 0.0 0.0 0.00 0.00 0.00 60 1016.6
20260903193208 93 251 0.0 0.0 0.00 0.00 0.00 63 1016.6
20260903192704 92 306 0.0 0.0 0.00 0.00 0.00 64 1016.7
20260903192200 92 242 0.0 0.0 0.00 0.00 0.00 62 1016.9
20260903191656 93 271 0.0 0.0 0.00 0.00 0.00 62 1016.8
20260903191155 93 270 0.0 0.0 0.00 0.00 0.00 61 1016.6
20260903190650 92 242 0.0 0.0 0.00 0.00 0.00 62 1016.8
20260903190145 93 303 0.0 0.0 0.00 0.00 0.00 61 1016.8
20260903185640 92 303 0.0 0.0 0.00 0.00 0.00 67 1017.1
20260903185135 92 0 0.0 0.0 0.00 0.00 0.00 63 1017.1
20260903184631 92 305 0.0 0.0 0.00 0.00 0.00 67 1017.2
20260903184127 92 304 0.0 0.0 0.00 0.00 0.00 65 1017.4
20260903183625 90 242 0.0 0.0 0.00 0.00 0.00 66 1017.5
20260903183121 91 253 0.0 0.0 0.00 0.00 0.00 66 1017.6
20260903182620 91 253 0.0 0.0 0.00 0.00 0.00 64 1017.5
20260903182116 91 293 0.0 0.0 0.00 0.00 0.00 67 1017.6
20260903181614 92 237 0.0 0.0 0.00 0.00 0.00 64 1017.4
20260903181108 92 253 0.0 0.0 0.00 0.00 0.00 65 1017.5
20260903180604 92 352 0.0 0.0 0.00 0.00 0.00 66 1017.5
20260903180058 91 290 0.0 0.0 0.00 0.00 0.00 64 1017.7
20260903175557 91 255 0.0 0.0 0.00 0.00 0.00 65 1017.7
20260903175052 92 303 0.0 0.0 0.00 0.00 0.00 66 1017.7
20260903174552 91 268 0.0 0.0 0.00 0.00 0.00 73 1017.6
20260903174047 91 176 0.0 0.9 0.00 0.00 0.00 68 1017.8
20260903173541 91 279 0.0 0.0 0.00 0.00 0.00 66 1017.9
20260903173038 91 249 0.0 0.0 0.00 0.00 0.00 67 1017.8
20260903172532 90 224 0.0 0.0 0.00 0.00 0.00 68 1017.9
20260903172028 91 244 0.0 0.0 0.00 0.00 0.00 68 1017.9
20260903171523 90 11 0.0 0.0 0.00 0.00 0.00 70 1017.9
20260903171018 90 308 0.0 0.0 0.00 0.00 0.00 70 1018.0
20260903170517 90 301 0.0 0.0 0.00 0.00 0.00 68 1018.1
20260903170013 90 308 0.0 0.9 0.00 0.00 0.00 69 1018.1
20260903165510 90 264 0.0 0.0 0.00 0.00 0.00 71 1018.0
20260903165006 89 202 0.0 0.0 0.00 0.00 0.00 69 1018.3
20260903164455 89 234 0.0 0.0 0.00 0.00 0.00 68 1018.3
20260903163956 89 246 0.0 0.0 0.00 0.00 0.00 67 1018.3
20260903163451 89 358 0.0 0.0 0.00 0.00 0.00 70 1018.1
20260903162947 90 287 0.0 0.0 0.00 0.00 0.00 70 1018.2
20260903162443 89 249 0.0 0.0 0.00 0.00 0.00 71 1018.2
20260903161938 89 247 0.0 0.9 0.00 0.00 0.00 70 1018.5
20260903161434 89 299 0.0 0.0 0.00 0.00 0.00 70 1018.2
20260903160930 89 289 0.0 0.0 0.00 0.00 0.00 73 1018.4
20260903160429 88 246 0.0 0.0 0.00 0.00 0.00 71 1018.7
20260903155928 88 286 0.0 0.0 0.00 0.00 0.00 72 1018.4
20260903155423 88 286 0.0 0.0 0.00 0.00 0.00 74 1018.6
20260903154919 88 264 0.0 0.0 0.00 0.00 0.00 75 1018.5
20260903154414 88 161 0.0 0.0 0.00 0.00 0.00 73 1018.6
20260903153914 87 234 0.0 0.0 0.00 0.00 0.00 74 1018.7
20260903153410 87 242 0.0 0.0 0.00 0.00 0.00 72 1018.5
20260903152906 87 274 0.0 0.0 0.00 0.00 0.00 75 1018.5
20260903152401 87 175 0.0 0.0 0.00 0.00 0.00 76 1018.8
20260903151857 87 304 0.0 0.0 0.00 0.00 0.00 77 1018.7
20260903151352 86 269 0.0 0.0 0.00 0.00 0.00 77 1018.8
20260903150852 86 275 0.0 0.0 0.00 0.00 0.00 77 1018.7
20260903150347 86 244 0.0 0.0 0.00 0.00 0.00 76 1018.7
20260903145841 85 248 0.0 0.0 0.00 0.00 0.00 78 1018.8
20260903145337 85 274 0.0 0.0 0.00 0.00 0.00 78 1018.7
20260903144836 85 163 0.0 0.0 0.00 0.00 0.00 78 1018.8
20260903144331 85 152 0.0 0.0 0.00 0.00 0.00 80 1018.7
20260903143826 84 171 0.0 0.0 0.00 0.00 0.00 81 1018.7
20260903143323 84 205 0.0 0.0 0.00 0.00 0.00 81 1018.7
20260903142819 84 246 0.0 0.0 0.00 0.00 0.00 81 1018.8
20260903142315 84 155 0.0 0.0 0.00 0.00 0.00 80 1018.7
20260903141810 83 117 0.0 0.0 0.00 0.00 0.00 83 1018.8
20260903141306 82 138 0.0 0.0 0.00 0.00 0.00 84 1018.7
20260903140806 82 137 0.0 0.0 0.00 0.00 0.00 86 1018.8
20260903140301 82 137 0.0 0.0 0.00 0.00 0.00 84 1018.7
20260903135756 82 137 0.0 0.0 0.00 0.00 0.00 87 1018.6
20260903135252 81 137 0.0 0.0 0.00 0.00 0.00 87 1018.5
20260903134750 81 136 0.0 0.0 0.00 0.00 0.00 87 1018.5
20260903134247 80 136 0.0 0.0 0.00 0.00 0.00 91 1018.8
20260903133743 80 159 0.0 0.0 0.00 0.00 0.00 90 1018.6
20260903133240 80 159 0.0 0.0 0.00 0.00 0.00 92 1018.7
20260903132735 79 161 0.0 0.0 0.00 0.00 0.00 93 1018.9
20260903132229 79 161 0.0 0.0 0.00 0.00 0.00 93 1018.9
20260903131724 78 161 0.0 0.0 0.00 0.00 0.00 93 1018.8
20260903131218 78 161 0.0 0.0 0.00 0.00 0.00 94 1019.1
20260903130714 77 161 0.0 0.0 0.00 0.00 0.00 95 1019.2
20260903130214 76 161 0.0 0.0 0.00 0.00 0.00 96 1019.3
20260903125712 75 162 0.0 0.0 0.00 0.00 0.00 98 1019.3
20260903125207 74 163 0.0 0.0 0.00 0.00 0.00 97 1019.3
20260903124706 74 163 0.0 0.0 0.00 0.00 0.00 98 1018.9
20260903124201 73 162 0.0 0.0 0.00 0.00 0.00 99 1019.1
20260903123701 73 162 0.0 0.0 0.00 0.00 0.00 99 1019.1
20260903123200 73 162 0.0 0.0 0.00 0.00 0.00 99 1019.3
20260903122659 73 163 0.0 0.0 0.00 0.00 0.00 99 1019.5
20260903122154 72 162 0.0 0.0 0.00 0.00 0.00 99 1019.3
20260903121652 72 162 0.0 0.0 0.00 0.00 0.00 99 1019.1
20260903121149 71 163 0.0 0.0 0.00 0.00 0.00 99 1019.3
20260903120648 71 163 0.0 0.0 0.00 0.00 0.00 99 1019.2
20260903120142 71 163 0.0 0.0 0.00 0.00 0.00 99 1019.1
20260903115641 70 162 0.0 0.0 0.00 0.00 0.00 99 1019.1
20260903115136 70 162 0.0 0.0 0.00 0.00 0.00 99 1019.1
20260903114631 69 162 0.0 0.0 0.00 0.00 0.00 99 1019.2
20260903114127 69 163 0.0 0.0 0.00 0.00 0.00 99 1019.3
20260903113622 69 163 0.0 0.0 0.00 0.00 0.00 99 1019.1
20260903113118 69 162 0.0 0.0 0.00 0.00 0.00 99 1019.1
20260903112614 69 162 0.0 0.0 0.00 0.00 0.00 99 1019.1
20260903112114 69 162 0.0 0.0 0.00 0.00 0.00 99 1019.1
20260903111613 69 162 0.0 0.0 0.00 0.00 0.00 99 1018.8
20260903111109 69 162 0.0 0.0 0.00 0.00 0.00 99 1018.7
20260903110605 69 162 0.0 0.0 0.00 0.00 0.00 99 1018.9
20260903110059 69 162 0.0 0.0 0.00 0.00 0.00 99 1018.6
20260903105554 69 162 0.0 0.0 0.00 0.00 0.00 99 1018.5
20260903105049 69 162 0.0 0.0 0.00 0.00 0.00 99 1018.5
20260903104549 69 162 0.0 0.0 0.00 0.00 0.00 99 1018.6
20260903104045 69 162 0.0 0.0 0.00 0.00 0.00 99 1018.4
20260903103541 69 163 0.0 0.0 0.00 0.00 0.00 99 1018.3
20260903103037 69 162 0.0 0.0 0.00 0.00 0.00 99 1018.3
20260903102532 69 162 0.0 0.0 0.00 0.00 0.00 99 1018.4
20260903102031 69 162 0.0 0.0 0.00 0.00 0.00 99 1018.3
20260903101526 69 162 0.0 0.0 0.00 0.00 0.00 99 1018.2
20260903101022 69 162 0.0 0.0 0.00 0.00 0.00 99 1018.3
20260903100516 69 162 0.0 0.0 0.00 0.00 0.00 99 1018.3
20260903100015 69 162 0.0 0.0 0.00 0.00 0.00 99 1018.3
20260903095508 69 162 0.0 0.0 0.00 0.00 0.00 99 1018.2
20260903095004 69 162 0.0 0.0 0.00 0.00 0.00 99 1018.2
20260903094503 69 163 0.0 0.0 0.00 0.00 0.00 99 1018.1
20260903093958 69 162 0.0 0.0 0.00 0.00 0.00 99 1018.3
20260903093458 69 163 0.0 0.0 0.00 0.00 0.00 99 1018.3
20260903092954 69 162 0.0 0.0 0.00 0.00 0.00 99 1018.1
20260903092454 69 162 0.0 0.0 0.00 0.00 0.00 99 1018.2
20260903091953 69 163 0.0 0.0 0.00 0.00 0.00 99 1018.1
20260903091451 70 163 0.0 0.0 0.00 0.00 0.00 99 1018.1
20260903090946 69 163 0.0 0.0 0.00 0.00 0.00 99 1018.1
20260903090442 69 163 0.0 0.0 0.00 0.00 0.00 99 1018.0
20260903085940 69 163 0.0 0.0 0.00 0.00 0.00 99 1018.2
20260903085439 70 163 0.0 0.0 0.00 0.00 0.00 99 1018.2
20260903084939 70 163 0.0 0.0 0.00 0.00 0.00 99 1018.1
20260903084438 70 163 0.0 0.0 0.00 0.00 0.00 99 1018.2
20260903083933 70 163 0.0 0.0 0.00 0.00 0.00 99 1018.1
20260903083429 70 163 0.0 0.0 0.00 0.00 0.00 99 1018.3
20260903082928 70 163 0.0 0.0 0.00 0.00 0.00 99 1018.0
20260903082423 70 163 0.0 0.0 0.00 0.00 0.00 99 1018.3
20260903081918 70 163 0.0 0.0 0.00 0.00 0.00 99 1018.2
20260903081413 70 163 0.0 0.0 0.00 0.00 0.00 99 1018.2
20260903080910 70 162 0.0 0.0 0.00 0.00 0.00 99 1018.3
20260903080406 70 162 0.0 0.0 0.00 0.00 0.00 99 1018.3
20260903075901 70 162 0.0 0.0 0.00 0.00 0.00 99 1018.1
20260903075356 71 162 0.0 0.0 0.00 0.00 0.00 99 1018.2
20260903074851 71 162 0.0 0.0 0.00 0.00 0.00 99 1018.1
20260903074350 71 162 0.0 0.0 0.00 0.00 0.00 99 1018.2
20260903073846 71 162 0.0 0.0 0.00 0.00 0.00 99 1018.3
20260903073341 71 163 0.0 0.0 0.00 0.00 0.00 99 1018.1
20260903072837 71 163 0.0 0.0 0.00 0.00 0.00 99 1017.9
20260903072333 71 162 0.0 0.0 0.00 0.00 0.00 99 1018.0
20260903071829 71 162 0.0 0.0 0.00 0.00 0.00 99 1017.9
20260903071325 71 163 0.0 0.0 0.00 0.00 0.00 99 1018.0
20260903070820 70 162 0.0 0.0 0.00 0.00 0.00 99 1018.2
20260903070316 71 162 0.0 0.0 0.00 0.00 0.00 99 1018.3
20260903065810 71 162 0.0 0.0 0.00 0.00 0.00 99 1018.2
20260903065309 71 162 0.0 0.0 0.00 0.00 0.00 99 1018.1
20260903064809 71 162 0.0 0.0 0.00 0.00 0.00 99 1018.3
20260903064304 71 162 0.0 0.0 0.00 0.00 0.00 99 1018.3
20260903063800 71 162 0.0 0.0 0.00 0.00 0.00 99 1018.2
20260903063254 71 162 0.0 0.0 0.00 0.00 0.00 99 1018.3
20260903062746 71 162 0.0 0.0 0.00 0.00 0.00 99 1018.1
20260903062244 71 162 0.0 0.0 0.00 0.00 0.00 99 1018.1
20260903061741 71 162 0.0 0.0 0.00 0.00 0.00 99 1018.1
20260903061239 71 162 0.0 0.0 0.00 0.00 0.00 99 1017.9
20260903060730 71 162 0.0 0.0 0.00 0.00 0.00 99 1018.0
20260903060230 71 163 0.0 0.0 0.00 0.00 0.00 99 1018.0
20260903055727 71 163 0.0 0.0 0.00 0.00 0.00 99 1017.9
20260903055226 71 163 0.0 0.0 0.00 0.00 0.00 99 1018.1
20260903054721 71 163 0.0 0.0 0.00 0.00 0.00 99 1018.0
20260903054216 71 163 0.0 0.0 0.00 0.00 0.00 99 1018.1
20260903053713 71 163 0.0 0.0 0.00 0.00 0.00 99 1017.7
20260903053213 71 163 0.0 0.0 0.00 0.00 0.00 99 1017.8
20260903052708 71 163 0.0 0.0 0.00 0.00 0.00 99 1017.9
20260903052205 71 163 0.0 0.0 0.00 0.00 0.00 99 1017.9
20260903051704 71 163 0.0 0.0 0.00 0.00 0.00 99 1017.8
20260903051200 71 163 0.0 0.0 0.00 0.00 0.00 99 1017.7
20260903050655 72 163 0.0 0.0 0.00 0.00 0.00 99 1017.7
20260903050154 72 163 0.0 0.0 0.00 0.00 0.00 99 1017.7
20260903045649 71 163 0.0 0.0 0.00 0.00 0.00 99 1017.5
20260903045146 72 163 0.0 0.0 0.00 0.00 0.00 99 1017.5
20260903044642 72 163 0.0 0.0 0.00 0.00 0.00 99 1017.7
20260903044137 72 163 0.0 0.0 0.00 0.00 0.00 99 1017.6
20260903043634 72 163 0.0 0.0 0.00 0.00 0.00 99 1017.7
20260903043132 72 163 0.0 0.0 0.00 0.00 0.00 99 1017.9
20260903042632 72 163 0.0 0.0 0.00 0.00 0.00 99 1017.7
20260903042127 72 163 0.0 0.0 0.00 0.00 0.00 99 1017.6
20260903041624 72 163 0.0 0.0 0.00 0.00 0.00 99 1017.8
20260903041120 72 163 0.0 0.0 0.00 0.00 0.00 99 1017.5
20260903040618 72 163 0.0 0.0 0.00 0.00 0.00 99 1017.6
20260903040115 72 163 0.0 0.0 0.00 0.00 0.00 99 1017.7
20260903035610 72 163 0.0 0.0 0.00 0.00 0.00 99 1017.6
20260903035106 73 163 0.0 0.0 0.00 0.00 0.00 99 1018.0
20260903034600 73 163 0.0 0.0 0.00 0.00 0.00 99 1017.9
20260903034055 73 163 0.0 0.0 0.00 0.00 0.00 99 1018.0
20260903033551 73 163 0.0 0.0 0.00 0.00 0.00 99 1017.9
20260903033046 73 163 0.0 0.0 0.00 0.00 0.00 99 1018.0
20260903032541 73 163 0.0 0.0 0.00 0.00 0.00 99 1018.1
20260903032036 73 163 0.0 0.0 0.00 0.00 0.00 99 1017.8
20260903031536 73 163 0.0 0.0 0.00 0.00 0.00 99 1017.9
20260903031031 73 163 0.0 0.0 0.00 0.00 0.00 99 1018.1
20260903030527 73 163 0.0 0.0 0.00 0.00 0.00 99 1018.0
20260903030023 73 163 0.0 0.0 0.00 0.00 0.00 99 1018.2
20260903025518 73 163 0.0 0.0 0.00 0.00 0.00 99 1018.2
20260903025014 74 163 0.0 0.0 0.00 0.00 0.00 99 1018.3
20260903024513 74 163 0.0 0.0 0.00 0.00 0.00 99 1018.3
20260903024007 74 163 0.0 0.0 0.00 0.00 0.00 99 1018.3
20260903023503 74 163 0.0 0.0 0.00 0.00 0.00 99 1018.4
20260903022958 74 163 0.0 0.0 0.00 0.00 0.00 99 1018.2
20260903022457 74 163 0.0 0.0 0.00 0.00 0.00 99 1018.5
20260903021955 74 163 0.0 0.0 0.00 0.00 0.00 99 1018.3
20260903021451 74 163 0.0 0.0 0.00 0.00 0.00 99 1018.2
20260903020946 74 163 0.0 0.0 0.00 0.00 0.00 99 1018.3
20260903020442 74 163 0.0 0.0 0.00 0.00 0.00 99 1018.3
20260903015936 74 163 0.0 0.0 0.00 0.00 0.00 99 1018.3
20260903015432 74 163 0.0 0.0 0.00 0.00 0.00 99 1018.4
20260903014926 74 163 0.0 0.0 0.00 0.00 0.00 99 1018.2
20260903014426 74 163 0.0 0.0 0.00 0.00 0.00 99 1018.4
20260903013921 75 163 0.0 0.0 0.00 0.00 0.00 98 1018.5
20260903013421 75 163 0.0 0.0 0.00 0.00 0.00 98 1018.4
20260903012920 75 163 0.0 0.0 0.00 0.00 0.00 98 1018.3
20260903012420 75 163 0.0 0.0 0.00 0.00 0.00 98 1018.3
20260903011919 75 163 0.0 0.0 0.00 0.00 0.00 98 1018.3
20260903011414 75 163 0.0 0.0 0.00 0.00 0.00 98 1018.2
20260903010909 75 163 0.0 0.0 0.00 0.00 0.00 98 1018.0
20260903010404 75 163 0.0 0.0 0.00 0.00 0.00 98 1018.1
20260903005902 75 163 0.0 0.0 0.00 0.00 0.00 98 1018.0
20260903005358 76 163 0.0 0.0 0.00 0.00 0.00 98 1018.0
20260903004854 76 163 0.0 0.0 0.00 0.00 0.00 98 1017.8
20260903004349 76 163 0.0 0.0 0.00 0.00 0.00 97 1017.9
20260903003844 76 163 0.0 0.0 0.00 0.00 0.00 97 1017.9
20260903003344 76 163 0.0 0.0 0.00 0.00 0.00 97 1017.9
20260903002844 77 163 0.0 0.0 0.00 0.00 0.00 96 1017.8
20260903002339 77 163 0.0 0.0 0.00 0.00 0.00 96 1018.0
20260903001834 77 163 0.0 0.0 0.00 0.00 0.00 96 1017.9
20260903001329 77 163 0.0 0.0 0.00 0.00 0.00 96 1017.6
20260903000829 78 163 0.0 0.0 0.00 0.00 0.00 96 1017.6
20260903000318 78 163 0.0 0.0 0.00 0.00 0.00 95 1017.7
20260902235816 78 163 0.0 0.0 0.00 0.00 0.00 95 1017.7
20260902235312 79 163 0.0 0.0 0.00 0.00 0.00 94 1017.6
20260902234806 79 163 0.0 0.0 0.00 0.00 0.00 94 1017.7
20260902234306 80 163 0.0 0.0 0.00 0.00 0.00 93 1017.5
20260902233805 80 163 0.0 0.0 0.00 0.00 0.00 92 1017.5
20260902233304 81 163 0.0 0.0 0.00 0.00 0.00 91 1017.4
20260902232803 81 163 0.0 0.0 0.00 0.00 0.00 91 1017.6
20260902232306 82 163 0.0 0.0 0.00 0.00 0.00 90 1017.6
20260902231803 82 163 0.0 0.0 0.00 0.00 0.00 90 1017.5
20260902231258 82 163 0.0 0.0 0.00 0.00 0.00 88 1017.4
20260902230753 83 167 0.0 0.0 0.00 0.00 0.00 87 1017.5
20260902230252 84 169 0.0 0.0 0.00 0.00 0.00 85 1017.7
20260902225747 84 179 0.0 0.0 0.00 0.00 0.00 84 1017.6
20260902225242 85 179 0.0 0.0 0.00 0.00 0.00 83 1017.6
20260902224740 86 179 0.0 0.0 0.00 0.00 0.00 82 1017.6
20260902224236 87 179 0.0 0.0 0.00 0.00 0.00 78 1017.6
20260902223732 88 255 0.0 0.0 0.00 0.00 0.00 77 1017.7
20260902223231 88 256 0.0 0.0 0.00 0.00 0.00 78 1017.5
20260902222730 88 256 0.0 0.0 0.00 0.00 0.00 72 1017.6
20260902222224 89 252 0.0 0.0 0.00 0.00 0.00 73 1017.6
20260902221719 90 252 0.0 0.0 0.00 0.00 0.00 72 1017.8
20260902221213 90 239 0.0 0.0 0.00 0.00 0.00 67 1017.6
20260902220709 91 246 0.0 0.0 0.00 0.00 0.00 66 1017.7
20260902220208 91 246 0.0 0.0 0.00 0.00 0.00 70 1017.6
20260902215704 91 241 0.0 0.0 0.00 0.00 0.00 65 1017.6
20260902215200 91 221 0.0 0.0 0.00 0.00 0.00 68 1017.7
20260902214654 91 241 0.0 0.0 0.00 0.00 0.00 66 1018.0
20260902214153 90 258 0.0 0.0 0.00 0.00 0.00 66 1017.5
20260902213649 91 270 0.0 0.0 0.00 0.00 0.00 65 1017.8
20260902213148 91 241 0.0 0.0 0.00 0.00 0.00 65 1017.6
20260902212644 91 178 0.0 0.0 0.00 0.00 0.00 65 1017.8
20260902212140 92 266 0.0 0.0 0.00 0.00 0.00 64 1017.7
20260902211637 91 273 0.0 0.0 0.00 0.00 0.00 64 1017.7
20260902211136 91 301 0.0 0.0 0.00 0.00 0.00 62 1017.8
20260902210636 91 252 0.0 0.0 0.00 0.00 0.00 63 1017.8
20260902210131 92 249 0.0 0.0 0.00 0.00 0.00 64 1017.8
20260902205630 91 277 0.0 0.0 0.00 0.00 0.00 65 1017.9
20260902205126 92 250 0.0 0.0 0.00 0.00 0.00 62 1017.7
20260902204626 91 251 0.0 0.0 0.00 0.00 0.00 63 1017.8
20260902204120 91 302 0.0 0.0 0.00 0.00 0.00 63 1018.0
20260902203616 91 253 0.0 0.0 0.00 0.00 0.00 62 1018.1
20260902203115 91 308 0.0 0.0 0.00 0.00 0.00 64 1018.2
20260902202611 92 234 0.0 0.0 0.00 0.00 0.00 60 1018.3